Temp
5 5 5 5 5 4 4 4 4 4 4 4 4 4 4 4 5 5 5 5 5 5 5 5 5 4 4 4 4 3 3 3 3 3 3 2 2 2 2 2 2 2 2
5 5 5 5 4 4 4 4 4 4 4 4 4 4 4 4 4 4 5 5 5 5 5 5 5 5 4 4 4 3 3 3 3 3 2 2 2 2 2 2 2 2 2
5 5 4 4 4 4 4 4 4 4 4 4 4 4 4 4 4 4 4 5 5 5 5 5 5 5 5 4 4 4 3 3 3 3 2 2 2 2 2 2 2 2 2
5 5 5 5 4 4 4 4 4 4 4 5 5 4 4 4 4 4 5 5 5 5 5 5 5 5 5 5 4 4 4 4 3 3 3 2 2 2 2 2 2 2 1
5 5 5 5 5 5 5 5 5 5 5 5 5 5 5 5 5 5 5 5 5 5 5 5 5 5 5 5 5 4 4 4 4 4 3 3 3 3 3 2 2 1 1
6 6 6 6 5 5 5 5 5 5 5 5 5 5 5 5 5 5 5 5 5 5 5 5 5 5 5 5 5 5 5 4 4 4 4 4 4 4 3 2 2 2 2
6 5 5 5 5 5 5 5 5 5 5 5 4 5 5 5 5 5 5 5 5 5 5 5 5 5 5 5 5 5 4 4 4 4 4 4 4 4 4 4 3 3 2
5 5 5 5 5 5 5 5 5 5 5 5 4 4 5 5 6 6 6 6 5 5 5 5 5 5 4 4 4 4 4 4 4 4 4 4 4 4 5 4 4 4 3
5 5 5 5 4 4 4 4 4 4 4 4 3 3 3 3 3 3 3 3 4 4 4 3 4 4 4 4 3 4 3 3 3 3 3 3 4 4 4 4 4 4 4
4 4 4 4 4 3 3 3 3 3 3 3 3 2 2 2 1 1 2 1 1 3 4 4 3 3 3 3 3 3 3 3 3 3 2 2 3 3 4 4 4 4 4
3 3 2 2 2 1 1 1 1 1 1 1 1 1 1 1 0 -0 1 1 1 1 1 2 2 3 3 2 2 2 2 2 2 2 2 2 2 2 3 3 3 3 3
2 2 1 1 1 1 1 1 1 1 0 0 -0 -0 -0 -0 -0 -0 -0 0 0 1 0 0 0 1 1 1 2 1 1 2 1 1 0 0 1 1 2 2 2 2 2
1 1 1 1 1 0 0 0 0 -0 -0 -1 -1 -1 -1 -1 -2 -2 -2 -1 -1 -0 -0 0 -0 -0 -0 -0 -0 -0 0 0 0 0 -0 -1 -1 -0 0 0 -0 0 1
0 0 -0 -0 -0 -0 -0 -1 -1 -1 -1 -1 -1 -1 -2 -2 -3 -3 -3 -3 -3 -2 -2 -1 -2 -2 -2 -2 -1 -1 -1 -1 -0 0 -0 -1 -0 -0 -0 -0 -1 -0 -0
-1 -1 -1 -1 -1 -2 -2 -2 -2 -2 -2 -2 -2 -2 -2 -2 -2 -3 -4 -4 -5 -4 -3 -1 -2 -2 -2 -2 -2 -2 -2 -2 -2 -1 -0 -1 -1 -0 -0 -1 -1 -0 -1
-2 -2 -2 -2 -2 -3 -3 -3 -3 -3 -3 -3 -3 -3 -3 -3 -3 -3 -4 -4 -4 -5 -6 -2 -2 -2 -2 -2 -2 -2 -2 -2 -2 -2 -2 -1 -1 -1 -1 -0 -1 -1 -1
-2 -2 -3 -3 -3 -4 -4 -4 -4 -4 -4 -4 -4 -4 -4 -4 -4 -4 -4 -4 -4 -6 -7 -2 -3 -2 -2 -3 -2 -3 -2 -2 -3 -2 -3 -2 -2 -1 -1 -1 -1 -1 -1
-3 -3 -4 -4 -5 -5 -5 -5 -4 -4 -4 -4 -4 -4 -4 -5 -5 -5 -5 -5 -6 -6 -8 -5 -2 -2 -3 -3 -3 -3 -3 -3 -3 -3 -3 -3 -3 -2 -2 -2 -1 -1 -1
-4 -4 -5 -5 -5 -5 -5 -5 -5 -5 -5 -5 -5 -6 -6 -6 -6 -6 -6 -6 -7 -7 -7 -8 -4 -3 -3 -3 -4 -4 -4 -3 -4 -3 -3 -4 -3 -3 -3 -2 -2 -2 -2
-5 -5 -6 -6 -6 -6 -6 -6 -6 -6 -7 -7 -8 -8 -8 -8 -8 -8 -8 -8 -8 -8 -8 -9 -7 -6 -5 -4 -5 -6 -4 -5 -4 -5 -4 -4 -4 -4 -4 -3 -3 -3 -2
-6 -6 -6 -7 -7 -7 -7 -7 -8 -8 -9 -9 -9 -10 -10 -10 -10 -10 -10 -10 -10 -11 -10 -10 -10 -9 -8 -7 -8 -8 -8 -7 -6 -6 -5 -5 -4 -4 -3 -3 -2 -3 -2
-7 -7 -7 -7 -7 -8 -8 -9 -10 -10 -10 -11 -11 -11 -11 -11 -11 -11 -12 -12 -13 -13 -13 -12 -12 -12 -11 -11 -11 -11 -11 -10 -7 -7 -6 -5 -4 -4 -4 -3 -3 -3 -3
-7 -7 -8 -8 -8 -9 -10 -10 -11 -12 -12 -12 -12 -12 -12 -12 -12 -13 -13 -13 -14 -13 -13 -14 -13 -13 -13 -13 -13 -12 -11 -10 -9 -7 -7 -5 -5 -4 -4 -4 -3 -3 -3
-8 -8 -8 -9 -10 -10 -11 -12 -12 -12 -12 -12 -13 -13 -13 -13 -14 -14 -14 -14 -14 -14 -14 -13 -13 -14 -14 -13 -13 -12 -12 -11 -9 -8 -7 -6 -5 -4 -4 -4 -3 -3 -3
-8 -9 -9 -10 -11 -11 -12 -12 -13 -13 -13 -13 -13 -14 -15 -15 -15 -15 -15 -15 -14 -14 -13 -13 -14 -14 -13 -13 -13 -12 -11 -11 -9 -8 -7 -6 -5 -5 -5 -4 -3 -3 -4
-9 -9 -10 -11 -12 -12 -12 -13 -13 -14 -14 -14 -14 -14 -15 -15 -15 -15 -15 -15 -15 -14 -14 -13 -13 -13 -13 -12 -12 -12 -11 -10 -10 -8 -7 -8 -7 -6 -5 -3 -4 -4 -3
Height
3115 3114 3112 3111 3109 3107 3105 3103 3101 3100 3098 3096 3094 3092 3090 3088 3086 3085 3085 3083 3081 3079 3077 3076 3074 3073 3072 3071 3071 3071 3070 3070 3070 3069 3069 3069 3069 3069 3069 3069 3069 3069 3069
3112 3111 3109 3107 3105 3103 3101 3099 3097 3095 3094 3092 3090 3088 3085 3083 3081 3079 3078 3077 3074 3072 3071 3069 3068 3066 3064 3063 3062 3062 3061 3061 3061 3060 3060 3060 3060 3060 3060 3060 3061 3061 3061
3107 3105 3104 3102 3100 3098 3096 3095 3093 3090 3088 3085 3084 3081 3079 3077 3075 3074 3072 3070 3069 3067 3065 3062 3060 3058 3057 3055 3053 3052 3052 3051 3051 3050 3050 3050 3050 3051 3051 3051 3051 3052 3052
3101 3099 3098 3097 3096 3093 3090 3088 3086 3083 3080 3077 3075 3073 3070 3068 3067 3066 3063 3062 3060 3058 3056 3054 3052 3049 3048 3046 3044 3042 3041 3040 3040 3040 3040 3039 3039 3039 3040 3040 3041 3041 3042
3095 3093 3091 3091 3089 3086 3084 3081 3078 3074 3071 3068 3065 3063 3061 3059 3058 3057 3055 3053 3051 3049 3047 3046 3043 3040 3038 3036 3034 3032 3031 3029 3029 3028 3028 3028 3028 3028 3029 3028 3028 3029 3030
3089 3086 3085 3083 3081 3079 3077 3074 3070 3067 3063 3060 3055 3053 3051 3050 3049 3048 3045 3043 3040 3038 3036 3034 3033 3030 3029 3027 3024 3023 3021 3020 3018 3017 3016 3015 3015 3015 3016 3016 3016 3017 3017
3084 3082 3079 3077 3074 3072 3070 3066 3061 3058 3056 3052 3044 3042 3038 3039 3036 3035 3033 3031 3029 3027 3023 3023 3021 3019 3018 3016 3015 3014 3012 3010 3008 3006 3005 3004 3004 3004 3003 3003 3004 3005 3005
3080 3077 3075 3072 3069 3066 3064 3060 3055 3050 3047 3046 3037 3030 3022 3024 3025 3022 3020 3018 3016 3014 3011 3010 3008 3007 3005 3003 3003 3003 3001 3000 2998 2996 2995 2995 2994 2993 2992 2992 2993 2993 2993
3076 3073 3069 3066 3063 3059 3056 3052 3048 3043 3038 3037 3033 3026 3016 3009 3005 3006 3006 3004 3001 3000 2998 2996 2995 2993 2991 2990 2989 2988 2988 2987 2986 2984 2983 2982 2981 2981 2981 2980 2980 2980 2980
3070 3067 3063 3060 3056 3052 3048 3044 3040 3035 3029 3023 3021 3019 3012 3005 2996 2986 2989 2987 2987 2987 2985 2984 2982 2981 2979 2976 2974 2973 2974 2976 2974 2971 2969 2967 2967 2967 2968 2968 2968 2968 2968
3064 3061 3057 3053 3048 3044 3039 3034 3030 3027 3021 3015 3009 3004 3001 2996 2991 2983 2969 2972 2972 2971 2969 2970 2968 2966 2965 2963 2962 2961 2960 2959 2959 2958 2956 2954 2954 2953 2954 2954 2955 2956 2956
3059 3055 3051 3046 3041 3036 3031 3026 3021 3016 3010 3005 2999 2993 2987 2980 2976 2972 2964 2958 2953 2953 2953 2953 2952 2951 2949 2946 2945 2944 2943 2942 2942 2942 2941 2941 2939 2939 2939 2939 2940 2941 2943
3052 3047 3042 3038 3032 3027 3021 3015 3010 3005 2999 2993 2987 2982 2977 2971 2966 2959 2951 2943 2938 2937 2936 2936 2934 2933 2932 2931 2928 2928 2927 2927 2926 2924 2921 2921 2921 2922 2924 2924 2924 2926 2928
3041 3037 3032 3027 3021 3015 3010 3004 2998 2992 2986 2981 2975 2970 2964 2959 2953 2947 2940 2933 2924 2922 2921 2919 2918 2917 2915 2914 2912 2911 2909 2909 2909 2909 2908 2904 2904 2905 2904 2906 2907 2910 2912
3032 3026 3020 3014 3009 3003 2998 2992 2986 2980 2974 2969 2964 2958 2951 2946 2940 2934 2928 2924 2915 2906 2904 2909 2901 2902 2898 2898 2897 2895 2892 2890 2890 2890 2890 2890 2889 2887 2887 2886 2888 2892 2895
3021 3015 3009 3003 2998 2993 2987 2981 2975 2970 2963 2958 2952 2946 2939 2933 2927 2921 2915 2911 2905 2896 2886 2894 2890 2886 2883 2881 2880 2876 2875 2873 2872 2871 2872 2872 2873 2873 2872 2872 2871 2873 2877
3010 3005 3000 2994 2988 2983 2977 2971 2964 2958 2952 2946 2940 2933 2927 2919 2913 2907 2902 2897 2890 2883 2874 2875 2871 2870 2867 2865 2863 2861 2857 2856 2854 2855 2855 2856 2856 2856 2856 2857 2857 2859 2858
3003 2997 2991 2985 2979 2973 2967 2960 2953 2947 2940 2934 2928 2921 2914 2907 2900 2894 2889 2883 2876 2870 2861 2853 2856 2853 2849 2847 2844 2842 2840 2839 2838 2838 2839 2840 2840 2840 2840 2842 2844 2845 2845
2995 2989 2982 2976 2970 2964 2957 2950 2943 2936 2929 2922 2916 2909 2902 2894 2887 2881 2875 2868 2861 2853 2847 2839 2836 2836 2834 2831 2826 2825 2823 2821 2821 2821 2821 2822 2824 2824 2825 2826 2828 2829 2831
2986 2980 2974 2967 2961 2955 2947 2940 2932 2924 2916 2909 2902 2896 2889 2882 2875 2868 2860 2854 2846 2837 2831 2824 2819 2817 2816 2815 2808 2804 2802 2804 2802 2804 2804 2805 2808 2809 2810 2812 2814 2813 2815
2977 2971 2964 2959 2951 2944 2935 2926 2918 2909 2901 2894 2888 2881 2874 2868 2862 2854 2845 2839 2831 2823 2817 2809 2803 2799 2797 2795 2792 2788 2784 2783 2784 2786 2785 2788 2789 2792 2794 2797 2799 2800 2801
2969 2962 2956 2948 2941 2932 2923 2914 2904 2895 2887 2880 2871 2866 2859 2853 2846 2839 2832 2825 2818 2809 2803 2798 2791 2785 2782 2779 2777 2774 2771 2768 2763 2771 2770 2770 2772 2773 2776 2782 2785 2785 2786
2960 2953 2945 2937 2928 2919 2909 2899 2891 2882 2874 2867 2859 2851 2843 2838 2830 2822 2816 2810 2804 2799 2794 2786 2776 2774 2768 2768 2765 2761 2760 2757 2753 2755 2756 2751 2758 2756 2760 2764 2768 2769 2770
2949 2941 2932 2923 2914 2906 2896 2888 2879 2870 2862 2854 2846 2838 2830 2824 2818 2810 2803 2795 2789 2785 2781 2775 2768 2763 2762 2759 2754 2750 2745 2742 2740 2741 2744 2737 2743 2743 2746 2748 2752 2753 2754
2937 2929 2920 2911 2902 2896 2885 2876 2867 2858 2850 2843 2836 2829 2822 2814 2807 2801 2792 2783 2777 2772 2768 2762 2757 2752 2749 2748 2744 2739 2736 2731 2727 2728 2733 2727 2730 2728 2730 2733 2737 2739 2740
2926 2918 2910 2901 2893 2884 2876 2867 2857 2846 2838 2831 2825 2818 2812 2805 2798 2791 2782 2773 2765 2760 2754 2749 2746 2742 2739 2737 2735 2731 2725 2720 2717 2714 2721 2718 2717 2718 2716 2719 2723 2725 2729
Wind_Speed
10 10 10 10 12 14 15 15 15 16 17 19 19 19 20 21 22 24 25 25 26 25 25 26 28 30 31 31 32 32 32 32 33 33 33 32 31 31 30 29 28 27 27
13 14 14 14 14 17 19 20 21 23 24 25 24 24 25 25 26 26 27 27 29 29 30 30 30 31 33 33 34 34 34 35 37 37 38 38 37 37 36 35 34 33 32
19 21 21 22 22 24 26 28 29 30 31 32 32 33 31 31 30 30 32 32 32 32 33 33 33 33 34 35 37 38 37 38 38 39 41 41 42 42 42 41 40 39 38
24 26 28 28 29 30 32 33 34 34 34 34 35 34 35 35 34 35 36 35 36 36 36 36 37 37 36 37 38 39 39 41 42 42 43 43 44 45 45 45 45 45 44
26 29 30 30 30 30 30 33 34 36 36 36 38 37 38 37 37 37 37 39 40 40 39 39 40 41 41 41 41 40 40 42 43 44 45 45 46 46 46 47 47 47 47
25 28 31 32 32 32 32 34 35 36 39 40 43 43 43 42 41 41 42 43 43 44 44 44 44 45 45 45 45 44 42 42 42 43 44 45 45 46 48 47 47 48 48
24 26 28 29 32 34 35 38 40 41 41 43 48 48 49 47 47 47 47 46 46 46 48 48 48 48 48 49 48 46 44 44 44 44 44 43 44 45 46 47 47 46 45
26 28 30 32 34 35 36 38 41 43 44 42 47 51 55 53 50 49 47 45 44 42 44 46 49 49 50 50 49 47 46 46 46 47 46 45 45 44 44 45 45 44 47
28 30 32 34 36 38 39 40 42 44 46 44 44 48 53 56 54 54 49 47 48 48 44 43 43 45 48 50 51 51 49 46 45 46 46 47 47 45 45 44 43 41 43
28 31 33 35 37 39 41 42 43 45 47 50 49 48 50 52 51 58 55 51 49 49 47 47 46 44 43 45 47 49 49 47 48 48 47 46 48 47 46 44 45 42 43
30 32 34 36 38 40 42 45 45 46 48 51 52 53 52 52 52 55 64 60 57 56 56 52 52 48 46 48 48 48 47 46 46 47 47 44 47 47 46 46 45 44 41
30 33 36 38 41 43 44 46 47 47 49 50 51 53 54 57 58 58 61 63 64 62 59 58 57 57 57 57 54 50 47 55 56 53 49 44 43 42 43 43 42 43 43
35 38 40 42 44 45 46 47 48 49 50 52 54 55 55 56 56 58 61 64 65 65 63 61 61 60 59 59 58 55 54 53 55 53 58 58 62 59 53 50 52 55 50
43 45 46 46 46 47 48 49 50 51 52 53 55 55 56 56 55 54 55 58 62 63 63 62 58 57 56 55 54 53 53 52 52 53 53 55 52 57 65 64 58 56 51
48 50 50 49 48 48 49 49 50 50 51 52 53 53 54 54 54 54 52 52 54 59 61 58 61 58 57 55 55 56 58 56 53 51 52 51 52 55 53 62 61 63 49
52 52 50 49 49 47 47 47 47 47 49 49 50 50 51 51 51 51 52 52 52 54 57 54 53 55 56 58 58 58 57 56 57 55 54 53 53 52 51 54 56 61 61
51 50 49 47 46 46 46 47 48 49 50 50 50 51 50 51 51 51 51 52 53 54 53 55 54 53 53 54 54 56 57 57 56 54 50 48 53 53 52 50 48 48 51
47 47 45 45 46 46 47 48 49 51 52 54 54 55 54 54 54 54 54 55 56 56 57 62 58 58 59 58 58 59 57 55 54 54 46 41 43 49 50 50 50 50 50
46 45 46 46 47 48 50 52 54 55 56 57 56 55 54 54 55 55 55 55 57 59 60 61 64 62 62 62 63 61 60 58 54 53 50 45 43 44 45 46 46 47 48
46 46 46 48 50 52 54 57 58 58 58 57 56 54 53 53 53 55 56 56 58 61 62 64 65 64 64 63 65 65 64 58 57 52 51 48 45 47 43 39 42 41 39
46 47 49 51 53 56 59 61 61 59 58 58 56 55 54 52 53 54 56 57 57 59 60 62 63 64 62 62 63 62 61 60 56 52 51 47 46 45 45 44 44 43 43
47 50 52 56 59 60 60 59 57 58 57 55 55 54 54 53 53 53 52 52 53 53 55 54 55 56 57 55 55 55 54 54 59 49 48 48 44 45 43 37 36 38 43
50 53 56 60 61 60 59 58 55 54 54 55 55 55 54 53 52 53 52 51 49 47 45 46 50 49 50 46 46 48 45 47 49 45 43 47 42 43 42 40 36 39 40
54 58 61 61 61 58 56 55 55 57 57 57 55 52 52 51 49 49 49 48 47 45 42 43 43 37 37 36 44 44 46 48 45 42 40 46 41 42 41 40 36 34 37
58 61 62 60 58 56 55 56 58 58 56 54 50 47 46 46 47 46 46 48 47 44 40 39 38 38 36 36 37 42 44 44 45 43 36 42 40 44 42 39 34 33 31
61 60 58 57 55 55 55 55 55 53 51 48 46 46 45 46 45 43 46 45 46 43 40 36 32 32 33 32 35 39 41 43 41 40 34 38 39 37 38 35 31 29 32
Wind_Direction
320 316 315 313 310 309 309 309 309 306 301 294 292 289 286 283 280 275 271 270 271 270 269 268 268 270 271 270 268 266 266 265 264 264 264 265 266 267 268 269 270 272 273
296 294 291 289 291 288 288 290 291 293 293 294 294 290 287 285 283 280 276 269 270 271 272 272 271 270 271 272 271 269 266 265 265 265 264 264 265 266 267 268 269 270 271
275 276 276 276 279 282 286 289 292 293 293 294 292 287 281 279 282 285 283 278 273 273 274 274 274 274 272 271 270 269 267 264 263 264 265 265 264 265 265 267 268 269 269
272 273 276 280 283 285 288 290 289 288 288 288 288 286 283 278 277 278 278 278 277 273 270 270 271 271 271 271 270 270 269 267 265 263 261 263 265 266 266 264 264 265 267
277 279 283 285 287 289 291 291 288 286 287 289 288 285 283 283 282 283 283 281 277 275 273 269 269 269 269 269 269 268 268 268 268 267 267 265 264 263 263 264 265 265 265
289 289 289 288 286 287 288 291 291 289 290 292 291 290 288 285 284 282 282 280 279 276 273 270 268 267 268 268 268 268 269 269 270 270 268 268 267 266 265 261 262 264 264
297 298 298 295 291 291 293 295 295 294 293 294 293 292 289 287 285 284 283 281 280 276 272 271 271 270 270 268 268 267 266 267 268 267 267 268 269 269 269 268 266 263 261
304 303 303 302 301 300 299 299 299 299 299 299 299 299 298 295 293 291 290 289 284 280 275 272 269 268 268 269 266 262 263 267 269 271 272 272 270 270 269 270 269 267 266
305 305 304 304 304 303 303 302 301 301 299 298 299 299 301 300 303 298 296 293 290 284 280 279 276 272 269 267 267 263 261 262 265 269 270 270 270 269 268 269 270 268 267
306 305 305 304 303 301 301 300 299 300 299 299 297 294 294 296 297 297 292 293 289 288 286 285 281 280 276 273 269 266 265 264 264 264 267 268 268 267 266 267 269 271 273
311 310 309 308 307 306 306 305 304 302 301 299 298 297 293 291 290 290 291 291 287 288 287 287 285 281 282 277 280 278 274 268 267 265 269 271 267 266 265 266 267 269 270
305 305 304 303 302 302 301 299 298 298 297 296 295 294 293 293 292 290 288 287 288 287 285 284 283 282 280 278 274 276 273 265 269 270 264 265 266 265 265 264 267 274 270
306 305 305 305 303 302 301 299 298 297 296 294 293 292 291 290 290 289 288 288 287 286 285 284 284 283 281 279 279 278 272 269 268 266 261 262 261 259 262 257 265 270 268
311 311 310 309 307 305 303 301 299 298 296 294 294 294 294 294 293 291 288 288 288 287 286 287 286 286 286 285 283 282 281 276 273 271 270 269 266 263 259 263 261 264 263
312 313 313 311 309 307 305 303 302 300 299 298 298 297 295 294 293 292 291 288 286 287 288 290 290 289 288 285 283 282 280 279 276 272 266 265 266 265 260 262 254 258 254
314 314 314 313 311 310 308 307 305 304 302 302 302 300 300 299 297 295 293 291 289 287 287 291 288 287 287 288 287 285 282 280 279 275 271 269 262 261 264 262 261 257 254
316 315 314 312 311 310 310 309 309 308 307 307 305 303 301 300 298 296 295 293 291 289 290 290 288 288 288 287 285 282 283 283 282 279 277 271 268 265 264 264 263 265 260
315 314 314 313 312 312 312 311 311 310 309 307 305 304 303 301 300 299 297 296 294 294 295 292 285 286 288 287 286 285 283 280 280 280 281 275 270 266 264 265 264 263 266
316 315 314 313 313 314 314 312 311 309 308 306 305 305 303 301 299 297 296 294 293 290 291 292 287 285 285 287 286 285 284 282 280 277 275 271 268 267 261 264 263 263 263
314 314 314 314 314 314 314 312 311 311 310 309 308 307 305 304 302 299 296 295 293 291 291 291 290 288 285 283 285 287 283 281 280 278 275 275 271 264 266 267 263 263 265
315 314 313 312 313 314 315 315 314 313 312 310 310 309 308 306 303 300 298 296 295 294 293 293 293 294 290 285 285 287 287 284 278 280 279 278 277 271 267 264 266 265 261
313 311 311 313 314 316 317 316 314 313 313 312 311 310 310 307 304 300 297 296 295 297 296 297 297 295 292 291 290 291 291 290 283 279 281 279 279 277 277 274 265 261 257
312 313 314 316 318 319 318 317 316 315 315 315 314 313 311 310 306 303 303 303 302 300 301 301 297 296 294 294 293 291 291 291 286 286 287 281 279 278 281 278 270 259 257
316 318 319 320 320 321 319 319 318 317 317 316 317 316 314 315 315 314 313 310 306 307 304 300 296 299 304 297 285 292 292 292 288 285 282 281 281 278 277 277 274 265 265
319 320 321 321 321 319 319 319 318 318 317 317 318 318 321 319 318 317 314 313 311 307 307 301 296 291 285 288 291 292 293 292 288 285 279 282 282 283 280 277 270 265 261
320 321 321 320 319 318 319 319 319 319 319 321 321 324 321 317 319 320 316 317 316 315 311 304 300 295 294 292 293 293 295 292 287 285 282 285 283 283 279 275 271 274 264